Pyramid Lake Weather Center

Moon Phase Calendar



Pyramid Lake Water Level
Online Cameras

 


      

Current Conditions in Spanish Springs
3/1/2024 7:18:25 AM

40°F
Feels Like 32
Clouds
Humidity
66%
Pressure
29.77"
Wind
14.2 mph (SW)
Dew Point
30°F
UV Index
0/10 (Low)
Visibility
6 mi

Hourly Forecast

Date & Time Fri, Mar 1
7:00 AM
Fri, Mar 1
8:00 AM
Fri, Mar 1
9:00 AM
Fri, Mar 1
10:00 AM
Fri, Mar 1
11:00 AM
Fri, Mar 1
12:00 PM
Fri, Mar 1
1:00 PM
Fri, Mar 1
2:00 PM
Fri, Mar 1
3:00 PM
Fri, Mar 1
4:00 PM
Fri, Mar 1
5:00 PM
Fri, Mar 1
6:00 PM
Fri, Mar 1
7:00 PM
Fri, Mar 1
8:00 PM
Fri, Mar 1
9:00 PM
Fri, Mar 1
10:00 PM
Fri, Mar 1
11:00 PM
Sat, Mar 2
12:00 AM
Sat, Mar 2
1:00 AM
Sat, Mar 2
2:00 AM
Sat, Mar 2
3:00 AM
Sat, Mar 2
4:00 AM
Sat, Mar 2
5:00 AM
Sat, Mar 2
6:00 AM
Sat, Mar 2
7:00 AM
Sat, Mar 2
8:00 AM
Sat, Mar 2
9:00 AM
Sat, Mar 2
10:00 AM
Sat, Mar 2
11:00 AM
Sat, Mar 2
12:00 PM
Sat, Mar 2
1:00 PM
Sat, Mar 2
2:00 PM
Sat, Mar 2
3:00 PM
Sat, Mar 2
4:00 PM
Sat, Mar 2
5:00 PM
Sat, Mar 2
6:00 PM
Sat, Mar 2
7:00 PM
Sat, Mar 2
8:00 PM
Sat, Mar 2
9:00 PM
Sat, Mar 2
10:00 PM
Sat, Mar 2
11:00 PM
Sun, Mar 3
12:00 AM
Sun, Mar 3
1:00 AM
Sun, Mar 3
2:00 AM
Sun, Mar 3
3:00 AM
Sun, Mar 3
4:00 AM
Sun, Mar 3
5:00 AM
Sun, Mar 3
6:00 AM
Condition
Clouds

Clouds

Clouds

Clouds

Rain

Rain

Rain

Rain

Rain

Rain

Rain

Rain

Rain

Snow

Clouds

Snow

Snow

Snow

Snow

Snow

Snow

Snow

Snow

Snow

Snow

Snow

Snow

Clouds

Clouds

Snow

Clouds

Snow

Clouds

Snow

Snow

Snow

Snow

Clouds

Clouds

Clouds

Clouds

Clouds

Snow

Snow

Snow

Snow

Snow

Snow
Temperature 40°F40°F41°F42°F42°F43°F42°F42°F42°F42°F42°F40°F39°F40°F40°F38°F39°F37°F37°F35°F33°F32°F30°F30°F29°F30°F30°F31°F32°F33°F34°F34°F35°F33°F31°F31°F30°F31°F30°F30°F30°F30°F29°F28°F28°F28°F28°F28°F
Feels Like 32°F29°F30°F32°F32°F33°F33°F34°F34°F32°F33°F31°F30°F29°F29°F28°F28°F26°F25°F23°F20°F20°F19°F20°F20°F21°F20°F20°F24°F24°F24°F23°F25°F22°F24°F25°F24°F25°F24°F22°F22°F25°F25°F25°F28°F28°F22°F20°F
Cloudiness 84%85%86%88%97%100%100%100%100%100%100%99%99%91%85%77%71%86%90%92%93%86%99%100%100%100%100%100%100%100%100%100%100%100%100%100%100%100%98%98%100%100%100%100%100%100%100%94%
Visibility 6 mi6 mi6 mi6 mi6 mi6 mi6 mi6 mi5 mi6 mi6 mi5 mi3 mi6 mi6 mi6 mi6 mi2 mi2 mi6 mi6 mi6 mi4 mi5 mi3 mi6 mi6 mi6 mi6 mi6 mi3 mi6 mi6 mi1 mi6 mi6 mi6 mi6 mi6 mi6 mi6 mi6 mi3 mi2 mi1 mi5 mi6 mi6 mi
Precipitation 18%22%27%27%36%49%53%53%57%65%84%80%82%92%78%95%98%100%98%98%100%100%51%64%74%77%81%83%20%23%39%52%56%63%88%86%93%75%80%80%47%51%55%77%87%87%67%57%
Humidity 66%64%62%64%67%65%71%73%75%78%76%83%85%75%71%80%77%84%81%78%76%74%79%73%78%67%68%56%55%58%57%52%51%70%74%64%71%71%71%69%67%70%82%85%91%90%80%78%
Dew Point 30°F30°F29°F31°F32°F30°F31°F32°F33°F33°F33°F33°F33°F31°F30°F31°F30°F31°F30°F27°F24°F22°F22°F20°F21°F18°F19°F15°F16°F18°F19°F16°F16°F22°F22°F18°F20°F20°F19°F18°F18°F19°F22°F22°F23°F23°F20°F19°F
Pressure 29.77"29.77"29.77"29.77"29.77"29.74"29.71"29.65"29.62"29.62"29.59"29.59"29.59"29.56"29.53"29.56"29.53"29.56"29.53"29.56"29.59"29.62"29.65"29.68"29.74"29.77"29.77"29.77"29.77"29.74"29.71"29.68"29.65"29.68"29.71"29.71"29.77"29.77"29.8"29.8"29.8"29.8"29.85"29.85"29.88"29.88"29.88"29.94"
Wind Speed 14.2 mph27.7 mph27.8 mph25.5 mph22.4 mph23 mph20.9 mph18.4 mph18.4 mph20.9 mph18.5 mph17.5 mph18.2 mph25.6 mph29.6 mph21 mph21.2 mph21.3 mph28.2 mph26.4 mph24.6 mph18.7 mph14.8 mph14.1 mph10.4 mph9.2 mph13.6 mph15.9 mph10.3 mph10.9 mph15.4 mph18.9 mph15.6 mph18.2 mph7.4 mph6.9 mph6.9 mph5.6 mph5.5 mph8.3 mph8.3 mph4.7 mph3.9 mph3.1 mph2.3 mph1 mph5.1 mph7.9 mph
Wind
Direction
223°
SW
222°
SW
227°
SW
227°
SW
224°
SW
219°
SW
212°
SSW
212°
SSW
208°
SSW
210°
SSW
203°
SSW
218°
SW
201°
SSW
206°
SSW
211°
SSW
211°
SSW
217°
SW
215°
SW
225°
SW
226°
SW
242°
WSW
242°
WSW
237°
WSW
239°
WSW
256°
WSW
252°
WSW
227°
SW
249°
WSW
241°
WSW
234°
SW
233°
SW
241°
WSW
236°
SW
242°
WSW
281°
W
254°
WSW
273°
W
250°
WSW
234°
SW
240°
WSW
254°
WSW
251°
WSW
239°
WSW
309°
NW
283°
WNW
329°
NNW
270°
W
276°
W

Daily Forecast

Date High Low Precip. Humidity
Today
Mar 1

Snow
43 °F
38 °F
98%
65%
Saturday
Mar 2

Snow
37 °F
29 °F
100%
58%
Sunday
Mar 3

Snow
36 °F
27 °F
87%
55%
Monday
Mar 4

Snow
39 °F
32 °F
71%
65%
Tuesday
Mar 5

Clouds
43 °F
32 °F
24%
75%
Wednesday
Mar 6

Snow
41 °F
36 °F
34%
86%
Thursday
Mar 7

Snow
43 °F
36 °F
85%
53%
Friday
Mar 8

Clouds
45 °F
32 °F
0%
40%
Saturday
Mar 9

Snow
41 °F
35 °F
89%
52%
Sunday
Mar 10

Rain
47 °F
38 °F
46%
54%
Monday
Mar 11

Snow
40 °F
33 °F
100%
50%
Tuesday
Mar 12

Clouds
43 °F
34 °F
0%
53%
Wednesday
Mar 13

Clouds
48 °F
37 °F
0%
51%
Thursday
Mar 14

Clear
54 °F
40 °F
1%
52%
Friday
Mar 15

Clear
46 °F
39 °F
0%
43%
Saturday
Mar 16

Clear
46 °F
38 °F
0%
32%

Temperature 8-14 Day Outlook



Precipitation 8-14 Day Outlook




Quick Links
Pyramid Lake News
Pyramid Lake Photos
Pyramid Lake Videos




About Us
Contact Us
Site Map
Search Site
Advertise With Us
   
Pyramid.USLakes.info
THE PYRAMID LAKE WEBSITE

Copyright 2024, Lakes Online
Privacy    |    Legal